Location: Atbuku
(36.4936°N, 30.4362°E)
Time: 09:28:17
(UTC+00:00)

Cosmos 1607 - Pass Details

Date: 20 March 2026
Orbit: 919 x 983 km, 65.0° (Epoch: 20 April)

Event Time Altitude Azimuth Distance (km) Brightness Sun altitude
Rises 17:46:55 0° 307° (NW) 3,661 8.3 -20.1°
Reaches altitude 10° 17:51:14 10° 279° (W) 2,720 7.5 -20.9°
Maximum altitude 17:53:39 12° 256° (WSW) 2,550 7.0 -21.4°
Drops below altitude 10° 17:56:06 10° 234° (SW) 2,723 6.8 -21.8°
Sets 18:00:27 0° 206° (SSW) 3,670 7.1 -22.7°
